User: anonymous   Login
Location: Melbourne
(37.8170°S, 144.9670°E)
Time: 12:53:14
(UTC+10:00)
Language:

Explorer 11/Cluster Stage 4 - Orbit

View from above orbital plane
View from above orbital plane
View from above satellite
View from above satellite

Ground track
Ground track

The orbit data is extracted from the following two-line orbital elements,

1   107U 61013A   18174.60069188 +.00000294 +00000-0 +18248-4 0  9990
2   107 028.7912 314.0907 0548159 310.2994 045.0893 14.08607307863926
Epoch (UTC): 23 June 2018 14:24:59
Eccentricity: 0.0548159
inclination: 28.7912°
perigee height: 467 km
apogee height: 1261 km
right ascension of ascending node: 314.0907°
argument of perigee: 310.2994°
revolutions per day: 14.08607307
mean anomaly at epoch: 45.0893°
orbit number at epoch: 86392

The dashed part of the orbit path shows where the satellite is in the earth's shadow,  

DLR